{"data":{"norad_id":67353,"epoch":"2026-05-25T00:35:18.075264Z","epoch_age_seconds":69074,"freshness":"FRESH","line1":"1 67353U 26003V   26145.02451476  .00016046  00000+0  59123-3 0  9991","line2":"2 67353  43.0015 156.3781 0001345 268.1503  91.9194 15.27587368 20498","mean_motion":15.27587368,"eccentricity":0.0001345,"inclination_deg":43.0015,"raan_deg":156.3781,"arg_perigee_deg":268.1503,"mean_anomaly_deg":91.9194,"bstar":0.00059123,"rev_number":2049,"period_min":94.266294037592,"perigee_km":482.10420712318,"apogee_km":483.94986024824,"semimajor_km":6861.1640336857,"source":"CELESTRAK","updated_at":"2026-05-25T13:38:21.526139Z"}}